www.pogodaiklimat.ru

Погода и климат >> Архив погоды >> Россия >> Чечня >> Шатой


ПОГОДА в Шатое

  • Прогноз погоды в Шатое
  • Монитор погоды в Шатое

АРХИВ ПОГОДЫ в Шатое

Время (UTC), дата Ветер
(напр.,м/с)
 
Видим.   Явления Облачность Т
(С)
Тd
(С)
f
(%)
Тe
(С)
Тes
(С)
Комфортность P
(гПа)
Po
(гПа)
Тmin
(С)
Tmax
(С)
R
(мм)
R24
(мм)
S
(см)
03 14.09 штиль 0 20 км ясно +6.9 +6.9 100 1024.5
06 14.09 СВ 1 20 км ясно +14.6 +10.2 75 +15 +23 1022.0 955.3
09 14.09 С 4 20 км 1/1 600 м
[Cu med, cong]
+20.7 +14.8 69 +24 +31 комфорт 1018.1 953.0
12 14.09 СЗ 3 20 км 10/4 600 м
[Cu med, cong]
+22.7 +15.9 65 +27 +28 душно 1017.1 952.5
15 14.09 С 1 20 км ясно +19.1 +12.0 63 +21 +21 комфорт 1017.1 951.7 +23.2
03 15.09 штиль 0 20 км ясно +6.1 +1.6 73 +5 +5 1022.3 953.7 +6.1
06 15.09 СВ 1 20 км 9/0
[Ci ing]
+16.2 +10.8 70 +17 +23 1019.8 953.6
09 15.09 С 3 20 км 9/4 600 м
[Cu med, cong Ci ing]
+24.1 +15.3 58 +27 +32 жарко 1016.4 952.1
12 15.09 С 4 20 км 9/3 600 м
[Cu med, cong Ci ing]
+24.2 +15.2 57 +27 +29 жарко 1016.0 951.8
15 15.09 штиль 0 20 км 10/10 600 м
[Cu med, cong]
+19.5 +13.4 68 +21 +21 комфорт 1018.3 952.9 +24.8
03 16.09 штиль 0 20 км ясно +8.5 +6.1 85 +8 +8 1022.6 954.5 +8.5
06 16.09 СВ 1 20 км 3/0
[Ci ing]
+16.6 +11.2 70 +17 +24 1018.9 952.9
09 16.09 СВ 5 20 км 9/3 600 м
[Cu med, cong Ci ing]
+21.9 +14.4 62 +25 +29 комфорт 1014.2 949.6
12 16.09 С 2 20 км 9/4 600 м
[Cu med, cong Ci ing]
+22.9 +13.7 56 +26 +29 жарко 1012.9 948.6
15 16.09 штиль 0 20 км 8/5 600 м
[Cu med, cong Ci ing]
+19.1 +13.7 71 +20 +20 1012.7 947.6 +23.4
03 17.09 штиль 0 8000 м 3/3 600 м
[Sc]
+10.7 +9.3 91 +10 +10 1015.5 948.4 +10.7
06 17.09 В 1 20 км 8/4 600 м
[Cu med, cong Ci ing]
+18.3 +12.6 69 +20 +24 1012.8 947.5
09 17.09 СВ 3 20 км 4/4 600 м
[Cu med, cong]
+24.1 +12.7 49 +26 +32 жарко 1009.2 945.4
12 17.09 СЗ 2 20 км 9/9 600 м
[Cu med, cong]
+23.8 +12.9 50 +26 +26 жарко 1009.2 945.3
15 17.09 СВ 1 20 км 10/10 600 м
[Cu med, cong]
+19.4 +14.0 71 +22 +22 комфорт 1011.1 946.2 +25.0
03 18.09 штиль 0 20 км ясно +9.5 +7.0 84 +9 +9 1017.7 950.2 +9.5
06 18.09 СВ 1 20 км 1/1 600 м
[Cu med, cong]
+16.7 +12.2 75 +18 +24 1016.0 950.2
09 18.09 С 3 20 км 1/1 600 м
[Cu med, cong]
+22.8 +15.5 63 +27 +36 душно 1013.4 949.1
12 18.09 С 3 20 км ясно +24.9 +14.3 52 +27 +32 жарко 1011.4 947.6
15 18.09 С 2 20 км ясно +21.2 +13.6 62 +24 +24 комфорт 1012.2 947.6 +25.0
03 19.09 штиль 0 20 км ясно +8.1 +4.2 76 +7 +7 1022.2 954.0 +8.1
06 19.09 штиль 0 20 км 10/10 600 м
[Cu med, cong]
+12.6 +9.2 80 +12 +12 1021.3 954.2
09 19.09 С 3 20 км 6/6 600 м
[Cu med, cong]
+20.5 +14.7 69 +23 +27 комфорт 1017.7 952.6
12 19.09 С 4 20 км 8/8 600 м
[Cu med, cong]
+23.3 +15.4 61 +28 +28 душно 1017.3 952.8
15 19.09 штиль 0 20 км 10/10 600 м
[Cu med, cong]
+18.4 +14.8 80 +19 +19 1019.8 954.1 +23.5
03 20.09 штиль 0 20 км ясно +7.7 +5.7 87 +7 +7 1019.6 951.5 +7.7
06 20.09 В 1 20 км ясно +14.1 +10.3 78 +14 +21 1016.2 949.8
09 20.09 С 5 20 км ясно +19.2 +11.6 61 +20 +26 1012.5 947.5
12 20.09 С 3 20 км 1/1 600 м
[Cu med, cong]
+22.4 +13.0 55 +25 +29 комфорт 1011.3 947.0
15 20.09 С 1 20 км 1/1 600 м
[Cu med, cong Ci fib]
+18.4 +14.4 78 +20 +20 1011.6 946.4 +22.5

 

Местоположение метеостанции Шатой (Чечня, Россия): широта 42.88 долгота 45.68 высота над уровнем моря 568 м.

В архиве по умолчанию представлена погода в Шатое за последнюю неделю. Архивные данные за месяц целиком и за предыдущие месяцы, начиная с января 2011 года, Вы можете получить, выбрав интересующий диапазон дат из раскрывающегося списка и нажав кнопку "Ввод!".


*Определитесь, кто Вы:
робот инопланетянин человек

Внимание! Время в таблицах - всемирное. Для получения местного времени необходимо прибавить поправку, которая равна 3 ч.

Смотрите также архив погоды в соседних городах и на ближайших метеорологических станциях:

Погода в Грозном (Чечня, Россия) (41 км)
Погода в Гудермесе (Чечня, Россия) (63 км)
Погода в Сулаке (высокогорная) (Дагестан, Россия) (73 км)
Погода в Назрани (Ингушетия, Россия) (74 км)
Погода в Владикавказе (Северная Осетия, Россия) (83 км)
Погода в Хасавюрте (Дагестан, Россия) (84 км)
Погода в Хунзахе (Дагестан, Россия) (90 км)
Погода в Наурской (Чечня, Россия) (90 км)
Погода в Шелковской (Чечня, Россия) (91 км)
Погода в Пасанаури (Грузия) (100 км)

Пояснения к столбцам:

Ветер - указаны скорость ветра в м/с - средняя за 10 мин, порывы в срок и между сроками (в фигурных скобках) и направление, откуда дует ветер: С - северный, СВ - северо-восточный, В - восточный, ЮВ - юго-восточный, Ю - южный, ЮЗ - юго-западный, З - западный, СЗ - северо-западный.
Видимость - горизонтальная дальность видимости в метрах или километрах. При видимости от 1 до 10 км при отсутствии осадков обычно наблюдается дымка, при ухудшении видимости до 1 км и менее - туман. В сухую погоду видимость может ухудшаться дымом, пылью или мглою.
Явления - указаны атмосферные явления, наблюдавшиеся в срок или в последний час перед сроком; фигурными скобками обозначены явления, наблюдавшиеся между сроками (за 1-3 часа до срока); квадратными скобками обозначены град или гололедные отложения с указанием их диаметра в мм.
Облачность - указаны через наклонную черту общая и нижняя облачность в баллах и высота нижней границы облаков в метрах; квадратными скобками обозначены формы облаков: Ci - перистые, Cs - перисто-слоистые, Cc - перисто-кучевые, Ac - высококучевые, As - высокослоистые, Sc - слоисто-кучевые, Ns - слоисто-дождевые, Cu - кучевые, Cb - кучево-дождевые. Подробнее классификацию облаков см. в Атласе облаков (PDF).
T - Температура воздуха - температура, измеренная на высоте 2 м над землей.
Td - Температура точки росы - температура, при понижении до которой содержащийся в воздухе водяной пар достигнет насыщения.
f - Относительная влажность воздуха - влажноcть воздуха, измеренная на высоте 2 м над землей.
Te - Эффективная температура - температура, которую ощущает одетый по сезону человек в тени. Характеристика душности погоды. При расчете учитывается влияние влажности воздуха и скорости ветра на теплоощущения человека.
Tes - Эффективная температура на солнце - температура, которую ощущает человек, с поправкой на солнечный нагрев. Характеристика знойности погоды. Зависит от высоты солнца над горизонтом, облачности и скорости ветра. Ночью, в пасмурную погоду, а также при ветре 12 м/с и более поправка равна нулю.
P - Атмосферное давление - приведенное к уровню моря атмосферное давление.
Po - Атмосферное давление - измеренное на уровне метеостанции атмосферное давление.
Tmin - Минимальная температура - минимум температуры воздуха на высоте 2 м над землей.
Tmax - Максимальная температура - максимум температуры воздуха на высоте 2 м над землей.
R - Количество осадков - Количество выпавших осадков за период времени, мм. При наведении курсора мыши на число - период времени, за который выпало указанное количество осадков.
R24 - Количество осадков - Количество выпавших осадков за 24 часа, мм.
S - Снежный покров - Высота снежного покрова, см. При наведении курсора мыши на число - состояние снежного покрова и степень покрытия местности в баллах.